[[{"header":{"parameterUnit":"m.s-1","parameterCategory":1,"la1":30.2991,"la2":30.254,"lo1":-89.0895,"lo2":-89.0444,"dx":0.0017,"dy":0.0017,"nx":28,"ny":28,"refTime":"2022-12-16T15:00:00:Z","depth":0,"parameterNumber":2,"parameterNumberName":"U-component_of_WINDS"},"data":[0,0,0,0,0,0,0,0,0,0,0,0,0,0,0,0,0,0,0,0,0,0,0,0,0,0,0,0,0,0,0,0,0,0,0,0,0,0,0,0,0,0,0,0,0,0,0,0,0,0,0,0,0,0,0,0,0,0,1.3987,1.3987,0,1.3985,1.3985,1.3985,1.3976,1.3976,1.3976,1.3976,1.3973,1.3973,1.3973,0,0,0,0,0,0,0,0,0,0,0,0,0,1.3983,1.3983,1.3987,1.3987,1.3987,1.3985,1.3985,1.3985,1.3977,1.3976,1.3976,1.3976,1.3973,1.3973,1.3973,0,0,0,0,0,0,0,0,0,0,0,0,0,1.3983,1.3983,1.3987,1.3983,1.3982,1.3985,1.3985,1.3985,1.3977,1.3976,1.3976,1.3976,1.3973,1.3973,1.3973,1.3979,0,0,1.3973,1.3973,0,0,0,0,0,0,0,0,1.3983,1.3983,1.3983,1.3983,1.3982,1.3981,1.3982,1.3983,1.3977,1.3979,1.3976,1.3976,1.3975,1.3975,1.3976,1.3979,1.3979,1.3973,1.3973,1.3973,1.3973,0,0,0,0,0,0,0,1.3983,1.3983,1.3986,1.3983,1.3983,1.3981,1.398,1.3983,1.3979,1.3978,1.3978,1.3978,1.3975,1.3975,1.3975,1.3979,1.3973,1.3973,1.3973,1.3973,1.3989,1.3989,0,0,0,0,0,0,1.3984,1.3984,1.3986,1.3986,1.3982,1.3981,1.3981,1.3982,1.3979,1.3978,1.3978,1.3977,1.3975,1.3975,1.3975,1.3983,1.3973,1.3973,1.3974,1.3988,1.3989,1.3989,0,0,0,0,0,0,1.3984,1.3984,1.3986,1.3985,1.3985,1.3981,1.3982,1.3982,1.3982,1.3978,1.3978,1.3979,1.3975,1.3975,1.3979,1.3983,1.3974,1.3974,1.3988,1.3989,1.3989,1.3998,0,0,0,0,0,0,1.3984,1.3984,1.3987,1.3985,1.3985,1.399,1.3983,1.3982,1.3982,1.3981,1.3979,1.3978,1.3975,1.3979,1.3979,1.3983,1.3974,1.3988,1.3988,1.3989,1.3997,1.3999,1.4,0,0,0,0,0,1.3984,1.3989,1.3987,1.3987,1.3988,1.399,1.399,1.3986,1.3983,1.3985,1.3983,1.3978,1.3983,1.3979,1.3979,1.3983,1.3987,1.3988,1.3989,1.3997,1.3999,1.4,0,0,0,0,0,0,1.3991,1.3989,1.3986,1.3991,1.3991,1.3989,1.3992,1.3988,1.3989,1.3988,1.3983,1.3983,1.3987,1.3985,1.3982,1.399,1.3984,1.3985,1.399,1.3992,1.3993,1.3993,1.3974,0,0,0,0,0,1.3993,1.3996,1.3993,1.3998,1.3998,1.3995,1.3996,1.3993,1.3992,1.3992,1.399,1.3989,1.3991,1.3991,1.3992,1.3998,1.3997,1.4001,1.4002,1.4003,1.4004,1.4007,1.4008,1.3992,1.3992,1.3992,0,0,1.3998,1.3997,1.3998,1.3999,1.3999,1.4001,1.3995,1.3997,1.3999,1.3992,1.3996,1.3994,1.3993,1.3998,1.4,1.3997,1.4008,1.4004,1.4005,1.4005,1.4007,1.4009,1.401,1.3992,1.3992,1.3992,0,0,1.4007,1.4007,1.4011,1.4011,1.401,1.4008,1.4009,1.4008,1.4007,1.401,1.4006,1.4007,1.4009,1.4009,1.4009,1.402,1.4015,1.402,1.4026,1.403,1.4031,1.4032,1.4035,1.4037,1.4021,1.4021,1.4021,0,1.4012,1.4016,1.4013,1.4016,1.4016,1.4012,1.4016,1.4016,1.4015,1.4016,1.4013,1.4016,1.4015,1.4019,1.4022,1.4022,1.4023,1.402,1.4031,1.4032,1.4033,1.4036,1.4038,1.4021,1.4021,1.4021,1.4021,0,1.4022,1.4025,1.4028,1.4029,1.403,1.4033,1.4031,1.4032,1.403,1.4028,1.4032,1.4031,1.4032,1.4033,1.403,1.4037,1.4035,1.4032,1.4026,1.4035,1.4038,1.4039,1.4022,1.4022,1.4022,1.4022,0,0,1.4034,1.4035,1.4036,1.4036,1.4036,1.4038,1.4041,1.4043,1.4044,1.4044,1.4047,1.4049,1.4046,1.4046,1.4044,1.4047,1.4055,1.4043,1.4043,1.4045,1.4062,1.4065,1.4066,1.4053,1.4053,1.4053,1.4062,0,1.4043,1.4049,1.4047,1.4053,1.4055,1.4051,1.4055,1.4055,1.4054,1.4056,1.4054,1.4056,1.4052,1.4052,1.4055,1.4053,1.4058,1.4053,1.4054,1.4055,1.4054,1.4068,1.407,1.4078,1.4063,1.4064,1.4064,0,1.4053,1.4055,1.4061,1.4061,1.4062,1.4065,1.4066,1.4068,1.4068,1.4068,1.4068,1.4066,1.4069,1.4064,1.4069,1.4065,1.4066,1.4065,1.4066,1.4065,1.4059,1.4066,1.4081,1.4082,1.4066,1.4065,1.4065,0,1.4061,1.4065,1.4069,1.407,1.407,1.4072,1.4072,1.4072,1.4073,1.4075,1.4075,1.4077,1.4078,1.4079,1.4077,1.4073,1.4081,1.4076,1.408,1.408,1.4081,1.4081,1.4095,1.4083,1.4083,1.4083,1.4083,0,1.407,1.4074,1.4073,1.4075,1.408,1.4078,1.4082,1.4082,1.4082,1.4085,1.4082,1.4084,1.4081,1.4083,1.4082,1.4086,1.4086,1.4085,1.4084,1.4085,1.4085,1.4085,1.4084,1.4083,1.4083,1.4083,1.4083,0,1.4079,1.4078,1.4083,1.4083,1.4083,1.4087,1.4087,1.4089,1.4089,1.4092,1.4092,1.4091,1.4094,1.4092,1.4094,1.4093,1.4098,1.4097,1.4098,1.4097,1.4101,1.4101,1.4115,1.4117,1.4104,1.4104,1.4104,0,1.4084,1.4087,1.4088,1.409,1.4091,1.4093,1.4095,1.4093,1.4095,1.4096,1.4098,1.4101,1.4102,1.4106,1.4105,1.4107,1.4106,1.4111,1.4106,1.4106,1.4105,1.4104,1.4105,1.4111,1.4111,1.4111,1.4112,0,1.4094,1.4094,1.4096,1.4098,1.41,1.4102,1.4103,1.4105,1.4104,1.4106,1.4108,1.411,1.4112,1.4115,1.4116,1.4116,1.4114,1.4113,1.4114,1.4114,1.4114,1.4114,1.41,1.4113,1.4113,1.4112,1.4112,1.4112,1.4101,1.4103,1.4105,1.4108,1.4109,1.411,1.4113,1.4113,1.4115,1.4118,1.4117,1.412,1.4121,1.4123,1.4123,1.4126,1.4124,1.4125,1.4125,1.4125,1.4126,1.4115,1.4126,1.4126,1.4126,1.4126,1.4126,0,1.411,1.4111,1.4113,1.4116,1.4118,1.4117,1.4118,1.412,1.4123,1.4125,1.4127,1.413,1.4132,1.4132,1.4134,1.4136,1.4135,1.4137,1.4136,1.4136,1.4128,1.4126,1.4138,1.4138,1.4138,1.4138,1.4138,1.4138,1.4115,1.4119,1.4119,1.4124,1.4125,1.4129,1.413,1.4131,1.4132,1.4136,1.4138,1.4139,1.414,1.4142,1.4144,1.4144,1.4145,1.4147,1.4146,1.4138,1.4137,1.4136,1.4134,1.4147,1.4147,1.4154,1.4154,1.4154]},{"header":{"parameterUnit":"m.s-1","parameterCategory":1,"la1":30.2991,"la2":30.254,"lo1":-89.0895,"lo2":-89.0444,"dx":0.0017,"dy":0.0017,"nx":28,"ny":28,"refTime":"2022-12-16T15:00:00:Z","depth":0,"parameterNumber":3,"parameterNumberName":"V-component_of_WINDS"},"data":[0,0,0,0,0,0,0,0,0,0,0,0,0,0,0,0,0,0,0,0,0,0,0,0,0,0,0,0,0,0,0,0,0,0,0,0,0,0,0,0,0,0,0,0,0,0,0,0,0,0,0,0,0,0,0,0,0,0,-4.1596,-4.1598,0,-4.1755,-4.1757,-4.1758,-4.1725,-4.1722,-4.172,-4.1717,-4.1878,-4.1884,-4.1891,0,0,0,0,0,0,0,0,0,0,0,0,0,-4.1262,-4.1268,-4.1596,-4.1598,-4.16,-4.1754,-4.1757,-4.1759,-4.1726,-4.1722,-4.1719,-4.1715,-4.1875,-4.1884,-4.1892,0,0,0,0,0,0,0,0,0,0,0,0,0,-4.1412,-4.127,-4.1595,-4.1602,-4.1604,-4.1754,-4.1757,-4.1759,-4.1727,-4.1722,-4.1718,-4.1714,-4.1873,-4.1883,-4.1893,-4.2046,0,0,-4.1925,-4.193,0,0,0,0,0,0,0,0,-4.1404,-4.1425,-4.1599,-4.1602,-4.1605,-4.1716,-4.1698,-4.1855,-4.1728,-4.168,-4.1717,-4.1712,-4.1827,-4.1841,-4.188,-4.2053,-4.206,-4.1926,-4.1932,-4.1937,-4.194,0,0,0,0,0,0,0,-4.1394,-4.1418,-4.1659,-4.1602,-4.1605,-4.1596,-4.1613,-4.1728,-4.1776,-4.1684,-4.1682,-4.1701,-4.1828,-4.187,-4.1884,-4.2062,-4.1926,-4.1935,-4.1942,-4.1946,-4.2368,-4.2372,0,0,0,0,0,0,-4.1381,-4.1409,-4.1654,-4.1663,-4.1492,-4.1606,-4.1624,-4.1684,-4.1775,-4.1785,-4.1705,-4.1699,-4.1855,-4.1872,-4.189,-4.2074,-4.1937,-4.1947,-4.1953,-4.2363,-4.2369,-4.2374,0,0,0,0,0,0,-4.1374,-4.1403,-4.1647,-4.1536,-4.1566,-4.1616,-4.1684,-4.169,-4.1733,-4.1791,-4.1799,-4.174,-4.1852,-4.1875,-4.2007,-4.2079,-4.1951,-4.1961,-4.2357,-4.2365,-4.2371,-4.2444,0,0,0,0,0,0,-4.1365,-4.1401,-4.146,-4.1538,-4.1572,-4.1763,-4.1689,-4.1696,-4.1751,-4.1745,-4.1826,-4.1835,-4.185,-4.1992,-4.2018,-4.2091,-4.1969,-4.2351,-4.236,-4.2369,-4.2436,-4.2453,-4.2468,0,0,0,0,0,-4.1353,-4.1474,-4.1463,-4.1493,-4.1647,-4.1767,-4.1787,-4.1803,-4.1757,-4.1816,-4.1854,-4.1832,-4.2067,-4.2005,-4.2034,-4.2112,-4.2346,-4.2358,-4.2368,-4.2429,-4.245,-4.2468,0,0,0,0,0,0,-4.1403,-4.1484,-4.1473,-4.1623,-4.1688,-4.1761,-4.1837,-4.1825,-4.1905,-4.1896,-4.1912,-4.193,-4.2065,-4.2102,-4.2032,-4.2265,-4.22,-4.2217,-4.2236,-4.2257,-4.2273,-4.2261,-4.1978,0,0,0,0,0,-4.1431,-4.1522,-4.1588,-4.1714,-4.1747,-4.1787,-4.1839,-4.1846,-4.1914,-4.1942,-4.1989,-4.2055,-4.2144,-4.2202,-4.2287,-4.2441,-4.2458,-4.2509,-4.2525,-4.2538,-4.2553,-4.2637,-4.266,-4.241,-4.241,-4.241,0,0,-4.1491,-4.1546,-4.1603,-4.1725,-4.1777,-4.1871,-4.181,-4.1912,-4.1981,-4.1957,-4.2085,-4.2122,-4.2197,-4.2341,-4.2406,-4.2376,-4.2625,-4.2552,-4.2562,-4.257,-4.265,-4.2674,-4.2695,-4.2418,-4.2417,-4.2415,0,0,-4.1647,-4.1699,-4.1809,-4.1862,-4.1941,-4.1967,-4.1993,-4.2068,-4.2092,-4.2221,-4.2205,-4.2287,-4.244,-4.2494,-4.2542,-4.2719,-4.2702,-4.2746,-4.2831,-4.2912,-4.2932,-4.295,-4.3013,-4.3035,-4.276,-4.276,-4.2761,0,-4.1712,-4.1853,-4.1867,-4.1971,-4.2025,-4.2008,-4.212,-4.217,-4.2273,-4.231,-4.2274,-4.2465,-4.2515,-4.2671,-4.2714,-4.2753,-4.2784,-4.2737,-4.2928,-4.2946,-4.2962,-4.3023,-4.3047,-4.2765,-4.2765,-4.2764,-4.2764,0,-4.1927,-4.2025,-4.2105,-4.2205,-4.2268,-4.2375,-4.2406,-4.2467,-4.2468,-4.2497,-4.2628,-4.2687,-4.2784,-4.2821,-4.2823,-4.2978,-4.2956,-4.2924,-4.286,-4.2991,-4.3048,-4.3071,-4.2772,-4.277,-4.2769,-4.2768,0,0,-4.2121,-4.2227,-4.2256,-4.2302,-4.2387,-4.2463,-4.2569,-4.2664,-4.2717,-4.2788,-4.2877,-4.3006,-4.2977,-4.3031,-4.3039,-4.311,-4.3247,-4.307,-4.3072,-4.3101,-4.3421,-4.3445,-4.3472,-4.3236,-4.324,-4.3244,-4.3415,0,-4.2285,-4.2473,-4.2489,-4.2657,-4.2748,-4.2733,-4.2825,-4.2887,-4.2917,-4.2997,-4.3029,-4.3121,-4.3076,-4.3109,-4.3179,-4.3216,-4.3311,-4.3203,-4.3319,-4.3323,-4.3301,-4.3501,-4.3527,-4.3686,-4.3437,-4.3441,-4.3444,0,-4.2503,-4.2581,-4.2759,-4.2832,-4.287,-4.2953,-4.3041,-4.3118,-4.3188,-4.3205,-4.3265,-4.3263,-4.3371,-4.3303,-4.3452,-4.3378,-4.3426,-4.3451,-4.3457,-4.3469,-4.3392,-4.3519,-4.3736,-4.376,-4.3479,-4.3476,-4.3474,0,-4.2626,-4.2775,-4.2901,-4.294,-4.3029,-4.3087,-4.3126,-4.3192,-4.3248,-4.3325,-4.3361,-4.3449,-4.3498,-4.3566,-4.3587,-4.3535,-4.3736,-4.3669,-4.3752,-4.3752,-4.3796,-4.3793,-4.4024,-4.3826,-4.3825,-4.3825,-4.3825,0,-4.2808,-4.2918,-4.2958,-4.3035,-4.3157,-4.3174,-4.3294,-4.333,-4.3389,-4.3472,-4.3464,-4.3542,-4.3566,-4.3648,-4.3665,-4.3786,-4.3808,-4.3824,-4.3827,-4.3825,-4.3823,-4.3857,-4.3847,-4.3831,-4.383,-4.3829,-4.3828,0,-4.2967,-4.2998,-4.3134,-4.3207,-4.3227,-4.3314,-4.3376,-4.345,-4.3478,-4.3584,-4.361,-4.3654,-4.375,-4.3778,-4.3894,-4.3905,-4.4048,-4.4041,-4.4024,-4.4025,-4.4107,-4.4099,-4.4369,-4.4405,-4.4182,-4.4184,-4.4186,0,-4.3082,-4.3166,-4.3247,-4.3303,-4.3345,-4.3435,-4.3492,-4.3512,-4.3571,-4.3657,-4.3721,-4.3817,-4.3894,-4.4049,-4.4091,-4.418,-4.4175,-4.4263,-4.4188,-4.4183,-4.4177,-4.4172,-4.418,-4.4278,-4.428,-4.4282,-4.4284,0,-4.3282,-4.3293,-4.3376,-4.3465,-4.3534,-4.3605,-4.3673,-4.3718,-4.3748,-4.3815,-4.3915,-4.3975,-4.4093,-4.4188,-4.4278,-4.4317,-4.4306,-4.4307,-4.4331,-4.433,-4.4317,-4.4326,-4.4064,-4.4301,-4.4299,-4.4298,-4.4297,-4.4296,-4.3423,-4.3496,-4.3565,-4.3658,-4.3711,-4.3775,-4.3849,-4.3886,-4.3969,-4.4068,-4.4074,-4.4181,-4.4248,-4.4368,-4.4412,-4.4496,-4.447,-4.4505,-4.4514,-4.4522,-4.4529,-4.4303,-4.4512,-4.4512,-4.4512,-4.4511,-4.4511,0,-4.3623,-4.3666,-4.3752,-4.3847,-4.392,-4.3903,-4.3977,-4.4039,-4.4134,-4.4198,-4.4275,-4.4388,-4.448,-4.4529,-4.4621,-4.4679,-4.4676,-4.4702,-4.4698,-4.4708,-4.4547,-4.4518,-4.4703,-4.4703,-4.4703,-4.4703,-4.4703,-4.4703,-4.3735,-4.386,-4.3879,-4.4029,-4.4072,-4.4177,-4.4221,-4.428,-4.4331,-4.4459,-4.4535,-4.4567,-4.4625,-4.4721,-4.4804,-4.4816,-4.485,-4.488,-4.4889,-4.4738,-4.4719,-4.47,-4.4672,-4.4887,-4.4887,-4.5042,-4.5044,-4.5045]}]]